Location: El Mouella
(16.4949°N, 9.1594°W)
Time: 15:16:44
(UTC+00:00)

Tsikada Rocket - Pass Details

Date: 02 June 2020
Orbit: 958 x 1009 km, 82.9° (Epoch: 04 July)

Event Time Altitude Azimuth Distance (km) Brightness Sun altitude
Rises 20:03:32 0° 184° (S) 3,670 6.8 -13.1°
Reaches altitude 10° 20:06:02 10° 184° (S) 2,716 6.1 -13.7°
Maximum altitude 20:12:16 87° 272° (W) 971 4.0 -15.0°
Drops below altitude 10° 20:18:26 10° 3° (N) 2,692 6.7 -16.2°
Sets 20:20:55 0° 4° (N) 3,636 7.4 -16.8°
